Caldwell, NJ

9:25 AM EDT on July 20, 2019 (GMT -0400)
Essex County

Weather History for KCDW - May, 2019

Change the Weather History Date:

Saturday, May 11, 2019

  Actual Average Record
Temperature  
Mean Temperature 62 °F -  
Max Temperature 71 °F 70 °F 92 °F (1979)
Min Temperature 55 °F 44 °F 29 °F (1966)
Degree Days  
Heating Degree Days 2    
Growing Degree Days 12 (Base 50)    
Moisture  
Dew Point 45 °F    
Average Humidity 57    
Maximum Humidity 87    
Minimum Humidity 28    
Precipitation  
Precipitation 0.09 in - - ()
Sea Level Pressure  
Sea Level Pressure 30.02 in    
Wind  
Wind Speed 4 mph (NNW)    
Max Wind Speed 13 mph    
Max Gust Speed 18 mph    
Visibility 10 miles    
Events Rain    
Averages and records for this station are not official NWS values.
T = Trace of Precipitation, MM = Missing Value Source: NWS Daily Summary

Daily Weather History Graph

Daily Weather History Graph

Search for Another Location

Airport or City:

Astronomy

May. 11, 2019 Rise Set
Actual Time 5:43 AM EDT 8:03 PM EDT
Civil Twilight 5:13 AM EDT 8:34 PM EDT
Nautical Twilight 4:35 AM EDT 9:12 PM EDT
Astronomical Twilight 3:53 AM EDT 9:54 PM EDT
Moon 11:49 AM EDT (5/11) 1:42 AM EDT (5/11)
Length of Visible Light 15h 21m
Length of Day
14h 19m
Waxing Crescent, 46% of the Moon is Illuminated
May 11
Waxing Crescent
May 11
First Quarter
May 18
Full
May 26
Last Quarter
Jun 3
New

Hourly Weather History & Observations

Time (EDT) Temp. Dew Point Humidity Pressure Visibility Wind Dir Wind Speed Gust Speed Precip Events Conditions
12:53 AM 66.9 °F 57.9 °F 73% 29.97 in 10.0 mi Calm Calm - 0.00 in   Overcast
1:53 AM 64.9 °F 57.0 °F 75% 29.98 in 10.0 mi NNW 6.9 mph - 0.00 in Rain Light Rain
2:53 AM 61.0 °F 55.9 °F 83% 29.99 in 7.0 mi NNW 4.6 mph - 0.03 in Rain Light Rain
3:53 AM 59.0 °F 55.0 °F 87% 29.98 in 10.0 mi WNW 4.6 mph - 0.01 in   Overcast
4:53 AM 57.0 °F 50.0 °F 77% 29.99 in 10.0 mi NNW 4.6 mph - N/A   Scattered Clouds
5:53 AM 55.9 °F 48.0 °F 75% 30.01 in 10.0 mi NW 5.8 mph - N/A   Clear
6:53 AM 55.9 °F 46.0 °F 69% 30.03 in 10.0 mi NNW 6.9 mph - N/A   Clear
7:53 AM 55.9 °F 44.1 °F 64% 30.05 in 10.0 mi Variable 6.9 mph - N/A   Clear
8:53 AM 57.0 °F 42.1 °F 57% 30.08 in 10.0 mi NW 12.7 mph 18.4 mph N/A   Clear
9:53 AM 57.9 °F 39.9 °F 51% 30.07 in 10.0 mi WNW 10.4 mph 17.3 mph N/A   Clear
10:53 AM 61.0 °F 42.1 °F 50% 30.07 in 10.0 mi Variable 3.5 mph - N/A   Clear
11:53 AM 62.1 °F 39.9 °F 44% 30.06 in 10.0 mi Variable 5.8 mph - N/A   Clear
12:53 PM 64.9 °F 37.9 °F 37% 30.05 in 10.0 mi North - - N/A   Clear
1:53 PM 66.0 °F 37.9 °F 36% 30.05 in 10.0 mi NNE 6.9 mph - N/A   Clear
2:53 PM 68.0 °F 37.9 °F 33% 30.02 in 10.0 mi Calm Calm - N/A   Clear
3:53 PM 69.1 °F 39.0 °F 33% 30.01 in 10.0 mi NE 3.5 mph - N/A   Clear
4:53 PM 70.0 °F 35.1 °F 28% 29.99 in 10.0 mi West 4.6 mph - N/A   Scattered Clouds
5:53 PM 70.0 °F 36.0 °F 29% 29.99 in 10.0 mi Variable 3.5 mph - N/A   Mostly Cloudy
6:53 PM 69.1 °F 37.9 °F 32% 29.99 in 10.0 mi Calm Calm - N/A   Overcast
7:53 PM 66.9 °F 41.0 °F 39% 29.99 in 10.0 mi Calm Calm - 0.00 in   Overcast
8:53 PM 64.0 °F 46.9 °F 54% 30.01 in 10.0 mi Calm Calm - 0.00 in Rain Light Rain
9:53 PM 62.1 °F 51.1 °F 67% 30.01 in 10.0 mi Calm Calm - 0.00 in   Overcast
10:53 PM 60.1 °F 53.1 °F 78% 30.01 in 10.0 mi ENE 3.5 mph - 0.01 in Rain Light Rain
11:53 PM 57.9 °F 54.0 °F 87% 30.00 in 8.0 mi ENE 5.8 mph - 0.04 in Rain Light Rain